K0TNT-10 Weather Reports


time (UTC)temp
C
wind
direction
speed
KPH
gust
KPH
rain 1hr
cm
rain 24hr
cm
rain mn
cm
humidity
%
barometer
mb
20260906183111 37 96 0.0 4.8 0.00 0.00 0.00 43 1012.1
20260906181553 36 103 0.0 0.0 0.00 0.00 0.00 44 1012.4
20260906180057 36 103 0.0 0.0 0.00 0.00 0.00 48 1012.7
20260906174538 36 97 0.0 0.0 0.00 0.00 0.00 50 1013.2
20260906173026 36 94 0.0 0.0 0.00 0.00 0.00 50 1013.2
20260906171528 35 84 0.0 0.0 0.00 0.00 0.00 51 1013.5
20260906170017 33 290 0.0 0.0 0.00 0.00 0.00 55 1013.7
20260906164532 33 79 0.0 0.0 0.00 0.00 0.00 58 1013.9
20260906163022 32 103 0.0 1.6 0.00 0.00 0.00 63 1014.1
20260906161510 31 297 0.0 0.0 0.00 0.00 0.00 64 1014.1
20260906160025 31 297 0.0 0.0 0.00 0.00 0.00 64 1014.0
20260906154522 31 297 0.0 0.0 0.00 0.00 0.00 63 1013.7
20260906153021 30 297 0.0 0.0 0.00 0.00 0.00 65 1013.6
20260906151506 30 297 0.0 0.0 0.00 0.00 0.00 65 1013.5
20260906150100 30 297 0.0 0.0 0.00 0.00 0.00 67 1013.6
20260906144600 30 297 0.0 0.0 0.00 0.00 0.00 66 1013.4
20260906144501 30 297 0.0 0.0 0.00 0.00 0.00 68 1013.4
20260906143123 29 297 0.0 0.0 0.00 0.00 0.00 69 1013.4
20260906141547 28 297 0.0 0.0 0.00 0.00 0.00 72 1013.6
20260906140048 27 297 0.0 0.0 0.00 0.00 0.00 77 1013.6
20260906134608 26 297 0.0 0.0 0.00 0.00 0.00 82 1013.7
20260906133058 25 297 0.0 0.0 0.00 0.00 0.00 83 1013.4
20260906131550 25 297 0.0 0.0 0.00 0.00 0.00 84 1013.3
20260906130047 24 297 0.0 0.0 0.00 0.00 0.00 85 1013.2
20260906124544 23 297 0.0 0.0 0.00 0.00 0.00 88 1013.0
20260906123106 22 297 0.0 0.0 0.00 0.00 0.00 91 1012.7
20260906121528 22 297 0.0 0.0 0.00 0.00 0.00 90 1012.5
20260906120033 22 297 0.0 0.0 0.00 0.00 0.00 91 1012.3
20260906114517 22 297 0.0 0.0 0.00 0.00 0.00 90 1012.2
20260906113016 22 297 0.0 0.0 0.00 0.00 0.00 90 1012.1
20260906111526 22 297 0.0 0.0 0.00 0.00 0.00 90 1012.0
20260906110037 22 297 0.0 0.0 0.00 0.00 0.00 90 1012.1
20260906104531 22 297 0.0 0.0 0.00 0.00 0.00 90 1011.9
20260906103021 22 297 0.0 0.0 0.00 0.00 0.00 90 1011.8
20260906101520 22 297 0.0 0.0 0.00 0.00 0.00 89 1011.7
20260906100012 22 297 0.0 0.0 0.00 0.00 0.00 89 1011.7
20260906094506 23 297 0.0 0.0 0.00 0.00 0.00 89 1011.7
20260906093007 23 297 0.0 0.0 0.00 0.00 0.00 89 1011.7
20260906091606 23 297 0.0 0.0 0.00 0.00 0.00 89 1011.7
20260906090052 23 297 0.0 0.0 0.00 0.00 0.00 88 1011.7
20260906084544 23 297 0.0 0.0 0.00 0.00 0.00 88 1011.5
20260906083039 23 297 0.0 0.0 0.00 0.00 0.00 87 1011.3
20260906081535 23 297 0.0 0.0 0.00 0.00 0.00 86 1011.3
20260906080031 23 297 0.0 0.0 0.00 0.00 0.00 85 1011.3
20260906074515 24 297 0.0 0.0 0.00 0.00 0.00 84 1011.2
20260906073011 24 297 0.0 0.0 0.00 0.00 0.00 83 1011.3
20260906071505 24 297 0.0 0.0 0.00 0.00 0.00 82 1011.3
20260906070101 24 297 0.0 0.0 0.00 0.00 0.00 83 1011.2
20260906064555 24 297 0.0 0.0 0.00 0.00 0.00 83 1011.3
20260906063055 25 297 0.0 0.0 0.00 0.00 0.00 83 1011.4
20260906061558 25 297 0.0 0.0 0.00 0.00 0.00 82 1011.4
20260906060053 25 297 0.0 0.0 0.00 0.00 0.00 80 1011.3
20260906054547 25 297 0.0 0.0 0.00 0.00 0.00 80 1011.3
20260906053108 25 297 0.0 0.0 0.00 0.00 0.00 80 1011.3
20260906051548 25 297 0.0 0.0 0.00 0.00 0.00 79 1011.4
20260906050012 25 297 0.0 0.0 0.00 0.00 0.00 79 1011.3
20260906044507 26 297 0.0 0.0 0.00 0.00 0.00 78 1011.2
20260906043023 26 297 0.0 0.0 0.00 0.00 0.00 78 1011.1
20260906041527 26 297 0.0 0.0 0.00 0.00 0.00 78 1011.0
20260906040017 26 297 0.0 0.0 0.00 0.00 0.00 77 1011.0
20260906034541 26 297 0.0 0.0 0.00 0.00 0.00 76 1010.8
20260906033109 26 297 0.0 0.0 0.00 0.00 0.00 75 1010.5
20260906031558 27 297 0.0 0.0 0.00 0.00 0.00 75 1010.5
20260906030053 27 297 0.0 0.0 0.00 0.00 0.00 74 1010.3
20260906024553 27 297 0.0 0.0 0.00 0.00 0.00 73 1010.1
20260906023052 27 297 0.0 0.0 0.00 0.00 0.00 72 1009.8
20260906021543 28 297 0.0 0.0 0.00 0.00 0.00 71 1009.4
20260906020041 28 297 0.0 0.0 0.00 0.00 0.00 69 1009.0
20260906014543 28 297 0.0 0.0 0.00 0.00 0.00 67 1009.0
20260906013049 29 297 0.0 0.0 0.00 0.00 0.00 65 1008.8
20260906011544 30 297 0.0 0.0 0.00 0.00 0.00 63 1008.8
20260906010043 31 297 0.0 0.0 0.00 0.00 0.00 58 1008.6
20260906004535 32 297 0.0 0.0 0.00 0.00 0.00 55 1008.5
20260906003023 33 297 0.0 0.0 0.00 0.00 0.00 52 1008.6
20260906001517 34 297 0.0 0.0 0.00 0.00 0.00 50 1008.5
20260906000037 35 297 0.0 0.0 0.00 0.00 0.00 48 1008.4
20260905234512 35 297 0.0 0.0 0.00 0.00 0.00 46 1008.5
20260905233007 35 297 0.0 0.0 0.00 0.00 0.00 43 1008.6
20260905231501 36 295 0.0 3.2 0.00 0.00 0.00 41 1008.6
20260905230059 36 70 0.0 1.6 0.00 0.00 0.00 41 1008.6
20260905224555 36 112 0.0 1.6 0.00 0.00 0.00 42 1008.6
20260905223048 36 101 0.0 1.6 0.00 0.00 0.00 41 1008.7
20260905221548 37 299 0.0 3.2 0.00 0.00 0.00 40 1008.8
20260905220042 37 339 0.0 3.2 0.00 0.00 0.00 38 1008.9
20260905214528 37 86 0.0 14.5 0.00 0.00 0.00 37 1009.0
20260905213029 37 328 0.0 8.0 0.00 0.00 0.00 38 1009.1
20260905211512 37 280 0.0 4.8 0.00 0.00 0.00 36 1009.3
20260905210006 38 290 1.6 8.0 0.00 0.00 0.00 36 1009.7
20260905204505 38 44 0.0 8.0 0.00 0.00 0.00 36 1010.0
20260905203100 38 330 0.0 9.7 0.00 0.00 0.00 36 1010.4
20260905201545 38 295 0.0 4.8 0.00 0.00 0.00 38 1010.8
20260905200040 39 295 1.6 9.7 0.00 0.00 0.00 35 1011.4
20260905194520 39 69 0.0 8.0 0.00 0.00 0.00 36 1012.1
20260905193032 39 73 0.0 4.8 0.00 0.00 0.00 38 1012.7
20260905191530 -17 69 1.6 8.0 0.00 0.00 0.00 1013.0
20260905190028 -17 93 0.0 4.8 0.00 0.00 0.00 1013.1
20260905184542 -17 85 0.0 11.3 0.00 0.00 0.00 1013.3